Waarnemingen

Advertentie
Mijn weer
Alghero, Italië (16520): temperatuur & dauwpunt: 16.06.2018 09:00:00 - 22.06.2018 09:00:00 (CEST)Alghero, Italië (16520): windsnelheid: 16.06.2018 09:00:00 - 22.06.2018 09:00:00 (CEST)Alghero, Italië (16520): windrichting: 16.06.2018 09:00:00 - 22.06.2018 09:00:00 (CEST)Alghero, Italië (16520): luchtdruk: 16.06.2018 09:00:00 - 22.06.2018 09:00:00 (CEST)Alghero, Italië (16520): zicht: 16.06.2018 09:00:00 - 22.06.2018 09:00:00 (CEST)Alghero, Italië (16520): neerslag: 16.06.2018 09:00:00 - 22.06.2018 09:00:00 (CEST)
Datum & Tijd tt [°C] td [°C] ff [km/u] ff [kn] dd ppp [hPa] vv [km] rr [mm]
22.06.2018 09:00:00 24,0 21,0 16 9 ZZW - 10 -
22.06.2018 08:00:00 22,5 20,6 15 8 ZZW 1015,0 10 -
22.06.2018 07:00:00 19,0 18,0 4 2 - - 10 -
22.06.2018 06:00:00 17,0 16,0 4 2 - - 10 -
22.06.2018 05:00:00 18,0 16,9 4 2 O 1015,8 10 0,0
22.06.2018 04:00:00 19,0 18,0 4 2 - - 10 -
22.06.2018 03:00:00 - - - - - - - -
22.06.2018 02:00:00 18,8 17,4 2 1 - 1016,5 10 -
22.06.2018 01:00:00 19,0 17,0 2 1 - - 10 -
22.06.2018 00:00:00 21,0 18,0 4 2 NW - 10 -
21.06.2018 23:00:00 20,8 18,2 2 1 NO 1016,9 10 0,0
21.06.2018 22:00:00 23,0 19,0 2 1 - - 10 -
21.06.2018 21:00:00 25,0 18,0 5 3 WNW - 10 -
21.06.2018 20:00:00 26,1 18,7 9 5 WNW 1015,6 10 -
21.06.2018 19:00:00 28,0 17,0 11 6 W - 10 -
21.06.2018 18:00:00 28,0 17,0 15 8 WNW - 10 -
21.06.2018 17:00:00 28,6 17,2 13 7 WNW 1016,3 10 0,0
21.06.2018 16:00:00 29,0 18,0 13 7 WNW - 10 -
21.06.2018 15:00:00 29,0 18,0 13 7 W - 10 -
21.06.2018 14:00:00 28,1 18,3 13 7 WNW 1017,1 45 -
21.06.2018 13:00:00 29,0 18,0 11 6 WNW - 10 -
21.06.2018 12:00:00 28,0 19,0 9 5 Z - 10 -
21.06.2018 11:00:00 27,7 18,0 5 3 Z 1017,6 10 0,0
21.06.2018 10:00:00 26,0 18,0 5 3 ZZW - 10 -
21.06.2018 09:00:00 25,0 18,0 2 1 - - 10 -
21.06.2018 08:00:00 20,6 18,0 4 2 NW 1017,8 10 -
21.06.2018 07:00:00 18,0 17,0 2 1 - - 10 -
21.06.2018 06:00:00 - - - - - - - -
21.06.2018 05:00:00 17,5 16,9 4 2 ONO 1017,7 10 0,0
21.06.2018 04:00:00 18,0 18,0 4 2 NNO - 10 -
21.06.2018 03:00:00 19,0 18,0 4 2 ONO - 10 -
21.06.2018 02:00:00 19,0 18,3 2 1 - 1018,1 10 -
21.06.2018 01:00:00 20,0 19,0 0 0 N - 10 -
21.06.2018 00:00:00 21,0 20,0 2 1 - - 10 -
20.06.2018 23:00:00 21,6 20,0 5 3 ZO 1018,7 10 0,0
20.06.2018 22:00:00 22,0 20,0 9 5 ZZW - 10 -
20.06.2018 21:00:00 24,0 18,0 4 2 - - 10 -
20.06.2018 20:00:00 25,0 18,2 11 6 ZW 1017,7 10 -
20.06.2018 19:00:00 25,0 21,0 15 8 ZZW - 10 -
20.06.2018 18:00:00 26,0 21,0 13 7 Z - 10 -
20.06.2018 17:00:00 26,0 20,9 15 8 Z 1017,9 10 0,0
20.06.2018 16:00:00 27,0 22,0 18 10 Z - 10 -
20.06.2018 15:00:00 27,0 21,0 15 8 ZZW - 10 -
20.06.2018 14:00:00 30,0 18,2 13 7 W 1018,0 10 -
20.06.2018 13:00:00 29,0 18,0 13 7 WNW - 10 -
20.06.2018 12:00:00 30,0 18,0 11 6 WZW - 10 -
20.06.2018 11:00:00 29,9 14,9 5 3 - 1018,4 10 0,0
20.06.2018 10:00:00 30,0 16,0 5 3 NNO - 10 -
20.06.2018 09:00:00 24,0 17,0 4 2 - - 10 -
20.06.2018 08:00:00 21,3 17,0 5 3 NO 1018,6 10 -
20.06.2018 07:00:00 18,0 16,0 5 3 NNO - 10 -
20.06.2018 06:00:00 17,0 16,0 5 3 NNO - 10 -
20.06.2018 05:00:00 17,1 16,5 4 2 ONO 1017,9 10 0,0
20.06.2018 04:00:00 17,0 17,0 2 1 - - 10 -
20.06.2018 03:00:00 18,0 17,0 4 2 - - 10 -
20.06.2018 02:00:00 18,7 17,8 4 2 ZZO 1018,4 10 -
20.06.2018 01:00:00 19,0 17,0 2 1 - - 10 -
20.06.2018 00:00:00 20,0 19,0 4 2 - - 10 -
19.06.2018 23:00:00 21,3 18,1 5 3 NNO 1018,3 10 0,0
19.06.2018 22:00:00 23,0 18,0 11 6 N - 10 -
19.06.2018 21:00:00 25,0 17,0 9 5 NO - 10 -
19.06.2018 20:00:00 26,8 16,8 18 10 NNO 1017,1 10 -
19.06.2018 19:00:00 29,0 16,0 21 11 NNO - 10 -
19.06.2018 18:00:00 30,0 14,0 28 15 NNO - 10 -
19.06.2018 17:00:00 30,6 15,0 28 15 NNO 1016,7 10 0,0
19.06.2018 16:00:00 31,0 16,0 24 13 NNO - 10 -
19.06.2018 15:00:00 31,0 16,0 24 13 NO - 10 -
19.06.2018 14:00:00 30,9 15,8 18 10 NO 1017,3 10 -
19.06.2018 13:00:00 30,0 18,0 16 9 NO - 10 -
19.06.2018 12:00:00 30,0 16,0 21 11 NO - 10 -
19.06.2018 11:00:00 28,5 17,7 16 9 NO 1017,6 10 0,0
19.06.2018 10:00:00 26,0 18,0 13 7 NNO - 10 -
19.06.2018 09:00:00 23,0 21,0 9 5 NO - 10 -
19.06.2018 08:00:00 21,0 20,0 16 9 O - 9 -
19.06.2018 07:00:00 18,0 18,0 2 1 - - 6 -
19.06.2018 06:00:00 17,0 17,0 4 2 - - 7 -
19.06.2018 05:00:00 18,1 17,6 2 1 - 1016,9 25 0,0
19.06.2018 04:00:00 18,0 18,0 5 3 NNO - 10 -
19.06.2018 03:00:00 19,0 18,0 8 4 NNW - 10 -
19.06.2018 02:00:00 18,9 18,2 4 2 NNO 1017,1 25 -
19.06.2018 01:00:00 19,0 18,0 5 3 NO - 10 -
19.06.2018 00:00:00 20,0 18,0 5 3 NNO - 10 -
18.06.2018 23:00:00 20,3 18,0 8 4 N 1017,2 10 0,0
18.06.2018 22:00:00 21,0 17,0 9 5 NNO - 10 -
18.06.2018 21:00:00 22,0 17,0 5 3 NNO - 10 -
18.06.2018 20:00:00 23,1 17,4 5 3 WNW 1015,7 10 -
18.06.2018 19:00:00 24,0 17,0 11 6 WNW - 10 -
18.06.2018 18:00:00 25,0 17,0 13 7 ZZW - 10 -
18.06.2018 17:00:00 24,7 16,5 15 8 ZZW 1015,2 10 0,0
18.06.2018 16:00:00 25,0 16,0 16 9 Z - 10 -
18.06.2018 15:00:00 25,0 16,0 15 8 Z - 10 -
18.06.2018 14:00:00 25,4 16,0 15 8 Z 1015,6 10 -
18.06.2018 13:00:00 24,0 16,0 16 9 Z - 10 -
18.06.2018 12:00:00 24,0 16,0 18 10 Z - 10 -
18.06.2018 11:00:00 23,5 16,6 13 7 Z 1015,7 10 0,0
18.06.2018 10:00:00 23,0 17,0 9 5 WNW - 10 -
18.06.2018 09:00:00 22,0 17,0 8 4 W - 10 -
18.06.2018 08:00:00 21,2 17,1 4 2 - 1015,9 10 -
18.06.2018 07:00:00 19,0 17,0 4 2 ZO - 10 -
18.06.2018 06:00:00 - - - - - - - -
18.06.2018 05:00:00 19,5 17,4 5 3 ZZW 1015,6 10 0,0
18.06.2018 04:00:00 20,0 18,0 8 4 ZZW - 10 -
18.06.2018 03:00:00 - - - - - - - -
18.06.2018 02:00:00 20,0 17,2 5 3 W 1016,7 10 -
18.06.2018 01:00:00 20,0 18,0 5 3 WZW - 10 -
18.06.2018 00:00:00 21,0 18,0 8 4 WZW - 10 -
17.06.2018 23:00:00 20,1 17,1 5 3 ZZW 1017,0 10 0,0
17.06.2018 22:00:00 20,0 17,0 5 3 W - 10 -
17.06.2018 21:00:00 21,0 17,0 9 5 W - 10 -
17.06.2018 20:00:00 21,7 16,8 13 7 W 1016,5 10 -
17.06.2018 19:00:00 23,0 17,0 13 7 W - 10 -
17.06.2018 18:00:00 24,0 17,0 13 7 W - 10 -
17.06.2018 17:00:00 24,1 18,1 13 7 WNW 1016,3 10 0,0
17.06.2018 16:00:00 25,0 18,0 15 8 W - 10 -
17.06.2018 15:00:00 25,0 19,0 13 7 W - 10 -
17.06.2018 14:00:00 24,8 18,8 15 8 WNW 1016,5 10 -
17.06.2018 13:00:00 26,0 19,0 11 6 - - 10 -
17.06.2018 12:00:00 24,0 18,0 13 7 ZZW - 10 -
17.06.2018 11:00:00 23,8 18,2 11 6 Z 1015,9 10 0,0
17.06.2018 10:00:00 23,0 18,0 9 5 ZZW - 10 -
17.06.2018 09:00:00 22,0 19,0 5 3 ZW - 10 -
17.06.2018 08:00:00 19,1 17,1 2 1 - 1015,1 10 -
17.06.2018 07:00:00 17,0 16,0 2 1 - - 10 -
17.06.2018 06:00:00 16,0 15,0 4 2 - - 10 -
17.06.2018 05:00:00 17,3 16,6 4 2 - 1014,4 10 0,0
17.06.2018 04:00:00 19,0 18,0 2 1 - - 10 -
17.06.2018 03:00:00 18,0 18,0 4 2 - - 10 -
17.06.2018 02:00:00 18,1 17,0 5 3 Z 1015,1 10 -
17.06.2018 01:00:00 17,0 16,0 8 4 ZW - 10 -
17.06.2018 00:00:00 19,0 17,0 5 3 Z - 10 -
16.06.2018 23:00:00 18,6 17,1 5 3 ZW 1015,2 10 0,0
16.06.2018 22:00:00 19,0 17,0 5 3 ZW - 10 -
16.06.2018 21:00:00 21,0 18,0 4 2 - - 10 -
16.06.2018 20:00:00 22,5 17,3 8 4 W 1014,3 10 -
16.06.2018 19:00:00 24,0 17,0 11 6 W - 10 -
16.06.2018 18:00:00 24,0 17,0 13 7 WNW - 10 -
16.06.2018 17:00:00 25,0 18,5 11 6 W 1013,8 10 0,0
16.06.2018 16:00:00 24,0 18,0 16 9 WNW - 10 -
16.06.2018 15:00:00 25,0 19,0 15 8 W - 10 -
16.06.2018 14:00:00 25,3 18,5 13 7 WZW 1013,9 10 -
16.06.2018 13:00:00 25,0 19,0 16 9 ZZW - 10 -
16.06.2018 12:00:00 24,0 19,0 16 9 Z - 10 -
16.06.2018 11:00:00 22,8 18,2 15 8 ZZW 1013,9 10 0,0
16.06.2018 10:00:00 23,0 19,0 13 7 ZW - 10 -
16.06.2018 09:00:00 21,0 18,0 13 7 ZZW - 10 -

tt = temperatuur
td = dauwpunt
ff = windsnelheid
dd = windrichting
ppp = luchtdruk
vv = zicht
rr = neerslag

Weerstations in de omgeving